Regional Weather Roundup
Issued by NWS

Home | Current Version | Previous Version | Text Only | Print | Product List | Glossary Off
Versions: 1 2 3 4 5 6 7 8 9 10 11 12 13 14 15 16 17 18 19 20 21 22 23 24 25 26 27 28 29 30 31 32 33 34 35 36 37 38 39 40 41 42 43 44 45 46 47 48 49 50

000
ASUS43 KLMK 290502
RWRKY
KENTUCKY REGIONAL WEATHER ROUNDUP
NATIONAL WEATHER SERVICE LOUISVILLE KY
1200 AM EST MON DEC 29 2014

NOTE "FAIR" INDICATES FEW OR NO CLOUDS BELOW 12,000 FEET
WITH NO SIGNIFICANT WEATHER AND/OR OBSTRUCTIONS TO VISIBILITY.

KYZ001>023-026-027-061>063-070>075-290600-
WESTERN AND SOUTH CENTRAL KENTUCKY

CITY           SKY/WX    TMP DP  RH WIND       PRES   REMARKS
PADUCAH        CLOUDY    34  28  79 NE8       30.21S WCI  27
HENDERSON      CLOUDY    34  27  75 N6        30.22S WCI  29
OWENSBORO      CLOUDY    34  30  85 N7        30.22F WCI  28
HOPKINSVILLE   CLOUDY    34  31  89 N6        30.19S WCI  29
BOWLING GREEN  CLOUDY    37  33  85 N6        30.18F WCI  32
GLASGOW        NOT AVBL
$$

KYZ024-025-028>034-038-045-046-053-290600-
NORTH CENTRAL KENTUCKY

CITY           SKY/WX    TMP DP  RH WIND       PRES   REMARKS
LOUISVILLE/SDF CLOUDY    36  29  75 N7        30.20F WCI  30
LOUISVILLE/LOU CLOUDY    35  29  78 N3        30.21F
FORT KNOX      CLOUDY    34  29  84 N5        30.18S WCI  29
$$

KYZ035>037-039>044-047>052-055>060-089>105-290600-
NORTHEAST KENTUCKY

CITY           SKY/WX    TMP DP  RH WIND       PRES   REMARKS
LEXINGTON      CLOUDY    32  30  92 N5        30.18S WCI  27
COVINGTON      CLOUDY    33  26  75 N8        30.20S WCI  26
FRANKFORT      CLOUDY    33  29  85 N3        30.20R
$$

KYZ054-064>069-076>088-106>120-290600-
SOUTHEAST KENTUCKY

CITY           SKY/WX    TMP DP  RH WIND       PRES   REMARKS
JACKSON        CLOUDY    36  35  96 NE3       30.13F FOG
LONDON         CLOUDY    39  35  86 N7        30.14S WCI  34
SOMERSET       NOT AVBL
MIDDLESBORO    NOT AVBL
MONTICELLO     CLOUDY    39  38  97 N6        30.18S WCI  35
$$



USA.gov is the U.S. government's official web portal to all federal, state and local government web resources and services.